Date String (YYYY-MM-DD hh:mm:ss) UTC,Instrument flags,Ambient pressure (hPa),Sample flow (lpm),Bypass flow (lpm),Sample temperature (°C),Ambient temperature (°C),ASC tube jacket temperature (°C),LED temperature (°C),Box temperature (°C),Sample RH (%),Span deviation,Mass concentration (μg/m³),Mass concentration (μg/m³),Mass concentration (μg/m³)
DateTimeUTC,F1_M11,P_M11,Q1_M11,Q2_M11,T1_M11,T2_M11,T3_M11,T4_M11,T5_M11,U1_M11,ZSPAN_M11,X0_M11,X2_M11,X1_M11
2022-03-01 00:00:00,,0827.7,5.01,0.00,29.3,28.6,00.0,38.1,31.1,09.6,0000.0,0017.52,0007.73,0006.93
2022-03-01 00:01:00,,0827.7,5.00,0.00,29.3,28.6,00.0,38.1,31.1,09.3,0000.0,0017.55,0008.06,0007.22
2022-03-01 00:02:00,,0827.7,5.00,0.00,29.3,28.6,00.0,38.1,31.2,08.5,0000.0,0017.89,0008.30,0007.47
2022-03-01 00:03:00,,0827.7,5.00,0.00,29.3,28.6,00.0,38.1,31.2,08.3,0000.0,0017.11,0008.38,0007.55
2022-03-01 00:04:00,,0827.7,5.00,0.00,29.3,28.6,00.0,38.1,31.2,08.5,0000.0,0016.78,0008.53,0007.70
2022-03-01 00:05:00,,0827.7,5.00,0.00,29.3,28.6,00.0,38.1,31.2,09.0,0000.0,0017.79,0008.87,0007.96
2022-03-01 00:06:00,,0827.7,5.00,0.00,29.4,28.7,00.0,38.2,31.2,09.3,0000.0,0018.17,0009.08,0008.19
2022-03-01 00:07:00,,0827.7,5.02,0.00,29.4,28.6,00.0,38.2,31.2,07.7,0000.0,0018.56,0008.99,0008.12
2022-03-01 00:08:00,,0827.7,4.98,0.00,29.4,28.7,00.0,38.2,31.2,08.2,0000.0,0018.16,0008.76,0007.91
2022-03-01 00:09:00,,0827.7,5.00,0.00,29.4,28.7,00.0,38.2,31.2,07.7,0000.0,0016.73,0008.48,0007.67
2022-03-01 00:10:00,,0827.7,5.00,0.00,29.4,28.7,00.0,38.2,31.2,07.2,0000.0,0015.43,0008.03,0007.27
2022-03-01 00:11:00,,0827.7,5.00,0.00,29.4,28.8,00.0,38.2,31.2,06.3,0000.0,0013.90,0007.45,0006.80
2022-03-01 00:12:00,,0827.7,5.01,0.00,29.4,28.8,00.0,38.3,31.2,06.2,0000.0,0012.57,0006.82,0006.22
2022-03-01 00:13:00,,0827.7,4.99,0.00,29.4,28.8,00.0,38.3,31.2,06.3,0000.0,0011.67,0006.23,0005.67
2022-03-01 00:14:00,,0827.7,4.99,0.00,29.4,28.8,00.0,38.3,31.2,06.2,0000.0,0011.14,0005.77,0005.27
2022-03-01 00:15:00,,0827.7,4.99,0.00,29.4,28.8,00.0,38.3,31.2,05.9,0000.0,0010.85,0005.22,0004.78
2022-03-01 00:16:00,,0827.7,5.01,0.00,29.4,28.8,00.0,38.3,31.2,05.7,0000.0,0009.57,0004.67,0004.29
2022-03-01 00:17:00,,0827.6,5.00,0.00,29.4,28.8,00.0,38.3,31.2,05.6,0000.0,0008.61,0004.03,0003.71
2022-03-01 00:18:00,,0827.6,5.01,0.00,29.4,28.8,00.0,38.3,31.1,05.6,0000.0,0007.12,0003.45,0003.16
2022-03-01 00:19:00,,0827.6,5.00,0.00,29.4,28.7,00.0,38.3,31.1,05.7,0000.0,0006.00,0002.98,0002.56
2022-03-01 00:20:00,,0827.7,4.99,0.00,29.4,28.8,00.0,38.3,31.1,06.6,0000.0,0004.58,0002.37,0002.01
2022-03-01 00:21:00,,0827.7,4.99,0.00,29.4,28.8,00.0,38.3,31.1,07.3,0000.0,0004.33,0002.22,0001.86
2022-03-01 00:22:00,,0827.7,5.00,0.00,29.4,28.8,00.0,38.3,31.1,07.0,0000.0,0004.56,0002.27,0001.83
2022-03-01 00:23:00,,0827.7,5.02,0.00,29.4,28.7,00.0,38.3,31.1,06.0,0000.0,0004.73,0002.32,0001.87
2022-03-01 00:24:00,,0827.7,5.01,0.00,29.4,28.7,00.0,38.3,31.1,05.8,0000.0,0005.06,0002.25,0001.83
2022-03-01 00:25:00,,0827.7,5.00,0.00,29.4,28.7,00.0,38.3,31.1,05.9,0000.0,0005.07,0002.21,0001.76
2022-03-01 00:26:00,,0827.7,4.99,0.00,29.4,28.7,00.0,38.3,31.1,05.8,0000.0,0004.13,0002.16,0001.72
2022-03-01 00:27:00,,0827.7,5.00,0.00,29.3,28.7,00.0,38.3,31.1,06.0,0000.0,0004.08,0002.11,0001.69
2022-03-01 00:28:00,,0827.7,4.99,0.00,29.3,28.7,00.0,38.3,31.1,06.1,0000.0,0004.05,0002.08,0001.66
2022-03-01 00:29:00,,0827.7,5.01,0.00,29.3,28.7,00.0,38.3,31.0,05.8,0000.0,0003.94,0002.04,0001.64
2022-03-01 00:30:00,,0827.7,5.00,0.00,29.3,28.7,00.0,38.3,31.0,05.7,0000.0,0003.89,0002.01,0001.60
2022-03-01 00:31:00,,0827.7,5.00,0.00,29.3,28.7,00.0,38.3,31.0,05.8,0000.0,0003.75,0001.88,0001.49
2022-03-01 00:32:00,,0827.7,5.00,0.00,29.3,28.7,00.0,38.3,31.0,05.8,0000.0,0003.46,0001.63,0001.25
2022-03-01 00:33:00,,0827.7,4.99,0.00,29.3,28.7,00.0,38.3,31.0,05.9,0000.0,0003.10,0001.37,0001.03
2022-03-01 00:34:00,,0827.7,5.00,0.00,29.3,28.7,00.0,38.3,31.0,05.7,0000.0,0002.64,0001.17,0000.87
2022-03-01 00:35:00,,0827.7,5.01,0.00,29.3,28.7,00.0,38.3,31.1,05.7,0000.0,0002.14,0001.12,0000.83
2022-03-01 00:36:00,,0827.7,5.01,0.00,29.3,28.7,00.0,38.3,31.1,05.8,0000.0,0001.73,0001.06,0000.80
2022-03-01 00:37:00,,0827.7,4.99,0.00,29.3,28.7,00.0,38.3,31.1,05.6,0000.0,0002.20,0001.03,0000.77
2022-03-01 00:38:00,,0827.7,5.00,0.00,29.3,28.7,00.0,38.3,31.1,05.7,0000.0,0002.43,0001.03,0000.74
2022-03-01 00:39:00,,0827.7,4.99,0.00,29.3,28.7,00.0,38.3,31.1,05.2,0000.0,0002.37,0001.00,0000.72
2022-03-01 00:40:00,,0827.7,5.01,0.00,29.3,28.7,00.0,38.3,31.0,05.3,0000.0,0002.22,0000.93,0000.68
2022-03-01 00:41:00,,0827.7,5.00,0.00,29.3,28.7,00.0,38.3,31.0,05.6,0000.0,0002.19,0000.91,0000.66
2022-03-01 00:42:00,,0827.7,5.00,0.00,29.3,28.6,00.0,38.3,31.0,06.0,0000.0,0002.14,0000.88,0000.63
2022-03-01 00:43:00,,0827.7,5.01,0.00,29.3,28.6,00.0,38.3,31.0,05.7,0000.0,0002.08,0000.84,0000.61
2022-03-01 00:44:00,,0827.7,5.01,0.00,29.3,28.6,00.0,38.3,31.0,05.3,0000.0,0001.90,0000.80,0000.59
2022-03-01 00:45:00,,0827.7,4.99,0.00,29.3,28.5,00.0,38.3,31.0,05.2,0000.0,0001.89,0000.79,0000.58
2022-03-01 00:46:00,,0827.7,4.99,0.00,29.2,28.5,00.0,38.3,30.9,05.0,0000.0,0001.96,0000.79,0000.57
2022-03-01 00:47:00,,0827.7,5.01,0.00,29.2,28.4,00.0,38.3,30.9,05.1,0000.0,0002.11,0000.82,0000.56
2022-03-01 00:48:00,,0827.7,4.99,0.00,29.1,28.4,00.0,38.3,30.8,05.1,0000.0,0001.86,0000.81,0000.55
2022-03-01 00:49:00,,0827.7,4.99,0.00,29.1,28.3,00.0,38.2,30.8,05.2,0000.0,0001.44,0000.83,0000.53
2022-03-01 00:50:00,,0827.7,5.01,0.00,29.1,28.3,00.0,38.2,30.8,05.2,0000.0,0001.40,0000.80,0000.52
2022-03-01 00:51:00,,0827.7,5.02,0.00,29.1,28.2,00.0,38.2,30.7,05.2,0000.0,0001.38,0000.79,0000.51
2022-03-01 00:52:00,,0827.7,5.00,0.00,29.0,28.2,00.0,38.2,30.7,05.1,0000.0,0001.42,0000.80,0000.50
2022-03-01 00:53:00,,0827.7,5.00,0.00,29.0,28.1,00.0,38.2,30.7,05.2,0000.0,0001.42,0000.79,0000.49
2022-03-01 00:54:00,,0827.7,5.00,0.00,29.0,28.1,00.0,38.1,30.6,05.3,0000.0,0001.41,0000.78,0000.48
2022-03-01 00:55:00,,0827.7,5.00,0.00,28.9,28.1,00.0,38.1,30.6,05.2,0000.0,0001.48,0000.80,0000.48
2022-03-01 00:56:00,,0827.7,5.00,0.00,28.9,28.0,00.0,38.1,30.5,05.3,0000.0,0001.43,0000.77,0000.47
2022-03-01 00:57:00,,0827.7,5.02,0.00,28.9,28.0,00.0,38.1,30.5,05.4,0000.0,0001.36,0000.74,0000.46
2022-03-01 00:58:00,,0827.7,5.00,0.00,28.9,28.0,00.0,38.1,30.5,05.3,0000.0,0001.16,0000.70,0000.46
2022-03-01 00:59:00,,0827.7,4.99,0.00,28.8,27.9,00.0,38.0,30.5,05.3,0000.0,0001.16,0000.69,0000.46
